This is the latest recevied weather packets stored in our database for station/object W0CHP-13. If no packets are shown the sender has not sent any weather packets the latest 10 day(s).
| Time | Temp. | Humidity | Pressure | Rain* | Wind** | Luminosity | Snow |
|---|---|---|---|---|---|---|---|
| 1777324816 | 18.89° C | 75% | 995.1 hPa | 0 mm | - | 202 W/m² | - |
| 1777324218 | 18.89° C | 75% | 994.7 hPa | 0 mm | - | 106 W/m² | - |
| 1777323616 | 19.44° C | 75% | 994.8 hPa | 0 mm | - | 166 W/m² | - |
| 1777323019 | 18.89° C | 77% | 995.1 hPa | 0.25 mm | - | 560 W/m² | - |
| 1777322417 | 18.33° C | 77% | 995.4 hPa | 0.25 mm | - | 388 W/m² | - |
| 1777321815 | 17.78° C | 79% | 995.8 hPa | 0.25 mm | - | 223 W/m² | - |
| 1777321217 | 17.78° C | 79% | 996.3 hPa | 0.51 mm | - | 76 W/m² | - |
| 1777320616 | 17.78° C | 80% | 996.4 hPa | 0.51 mm | - | 170 W/m² | - |
| 1777320018 | 17.22° C | 80% | 996.6 hPa | 0.76 mm | - | 166 W/m² | - |
| 1777319416 | 17.22° C | 80% | 996.6 hPa | 0.51 mm | - | 180 W/m² | - |
| 1777318819 | 17.22° C | 81% | 996.7 hPa | 0.51 mm | - | 143 W/m² | - |
| 1777318217 | 16.67° C | 80% | 996.7 hPa | 0.51 mm | - | 190 W/m² | - |
| 1777317615 | 16.11° C | 80% | 996.8 hPa | 0.25 mm | - | 120 W/m² | - |
| 1777317017 | 16.11° C | 80% | 996.9 hPa | 0.25 mm | - | 75 W/m² | - |
| 1777316416 | 16.11° C | 81% | 997.1 hPa | 0 mm | - | 65 W/m² | - |
| 1777315818 | 16.11° C | 80% | 997.1 hPa | 0 mm | - | 53 W/m² | - |
| 1777315216 | 16.11° C | 81% | 997.1 hPa | 0 mm | - | 96 W/m² | - |
| 1777314619 | 16.11° C | 81% | 997.2 hPa | 0 mm | - | 65 W/m² | - |
| 1777314017 | 16.11° C | 81% | 997.1 hPa | 0 mm | - | 105 W/m² | - |
| 1777313415 | 16.11° C | 81% | 997.1 hPa | 0 mm | - | 141 W/m² | - |
| 1777312817 | 16.11° C | 82% | 997.1 hPa | 0 mm | - | 192 W/m² | - |
| 1777312216 | 15.56° C | 82% | 997.1 hPa | 0 mm | - | 162 W/m² | - |
| 1777311618 | 15° C | 83% | 997.5 hPa | 0 mm | - | 159 W/m² | - |
| 1777311016 | 15° C | 85% | 997.7 hPa | 0 mm | - | 171 W/m² | - |
| 1777310418 | 14.44° C | 84% | 998.2 hPa | 0 mm | - | 75 W/m² | - |
* Rain latest hour (hover to see other rain measurements)
** Current wind speed in m/s (hover to see current wind gust speed)